TimeCST,TemperatureF,Dew PointF,Humidity,Sea Level PressureIn,VisibilityMPH,Wind Direction,Wind SpeedMPH,Gust SpeedMPH,PrecipitationIn,Events,Conditions,WindDirDegrees,DateUTC
12:54 AM,30.0,19.9,66,30.21,10.0,NW,6.9,-,N/A,,Clear,310,2012-11-12 06:54:00
1:54 AM,28.0,19.9,72,30.25,10.0,West,4.6,-,N/A,,Clear,280,2012-11-12 07:54:00
2:54 AM,27.0,21.0,78,30.26,10.0,West,6.9,-,N/A,,Clear,280,2012-11-12 08:54:00
3:54 AM,27.0,19.0,72,30.27,10.0,West,6.9,-,N/A,,Clear,280,2012-11-12 09:54:00
4:54 AM,27.0,19.0,72,30.30,10.0,West,9.2,-,N/A,,Clear,270,2012-11-12 10:54:00
5:54 AM,26.1,19.9,78,30.31,10.0,West,8.1,-,N/A,,Clear,260,2012-11-12 11:54:00
6:54 AM,26.1,19.9,78,30.34,10.0,West,6.9,-,N/A,,Clear,260,2012-11-12 12:54:00
7:54 AM,28.0,21.0,75,30.36,10.0,WSW,9.2,-,N/A,,Clear,250,2012-11-12 13:54:00
8:54 AM,32.0,21.0,64,30.37,10.0,WSW,8.1,-,N/A,,Clear,250,2012-11-12 14:54:00
9:54 AM,37.0,21.0,52,30.38,10.0,WSW,15.0,19.6,N/A,,Clear,240,2012-11-12 15:54:00
10:54 AM,39.0,24.1,55,30.38,10.0,WSW,16.1,-,N/A,,Clear,240,2012-11-12 16:54:00
11:54 AM,42.1,23.0,47,30.36,10.0,West,13.8,21.9,N/A,,Clear,270,2012-11-12 17:54:00
12:54 PM,43.0,21.0,42,30.33,10.0,West,19.6,27.6,N/A,,Clear,260,2012-11-12 18:54:00
1:54 PM,44.1,21.0,40,30.33,10.0,West,17.3,-,N/A,,Clear,270,2012-11-12 19:54:00
2:54 PM,44.1,21.9,42,30.35,10.0,West,16.1,26.5,N/A,,Clear,260,2012-11-12 20:54:00
3:54 PM,43.0,21.0,42,30.36,10.0,West,15.0,23.0,N/A,,Clear,260,2012-11-12 21:54:00
4:54 PM,41.0,21.0,45,30.38,10.0,West,8.1,-,N/A,,Clear,270,2012-11-12 22:54:00
5:54 PM,37.0,21.9,54,30.40,10.0,WSW,8.1,-,N/A,,Clear,250,2012-11-12 23:54:00
6:54 PM,36.0,21.9,57,30.41,10.0,West,6.9,-,N/A,,Clear,260,2012-11-13 00:54:00
7:54 PM,36.0,21.9,57,30.43,10.0,WSW,5.8,-,N/A,,Clear,240,2012-11-13 01:54:00
8:54 PM,35.1,23.0,61,30.44,10.0,WSW,5.8,-,N/A,,Clear,240,2012-11-13 02:54:00
9:54 PM,34.0,21.0,59,30.44,10.0,WSW,5.8,-,N/A,,Clear,250,2012-11-13 03:54:00
10:54 PM,34.0,21.0,59,30.45,10.0,WSW,5.8,-,N/A,,Clear,240,2012-11-13 04:54:00
11:54 PM,35.1,21.0,57,30.45,10.0,West,3.5,-,N/A,,Clear,270,2012-11-13 05:54:00